Tracking 32579 objects as of 16-Dec-2025
HD Live streaming from Space Station
objects crossing your sky now

STARLINK-5239

Track STARLINK-5239 now!
10-day predictions
STARLINK-5239 is classified as:


NORAD ID: 54183
Int'l Code: 2022-141AC
Perigee: 545.8 km
Apogee: 547.9 km
Inclination: 53.2 °
Period: 95.4 minutes
Semi major axis: 6917 km
RCS: Unknown
Launch date: October 28, 2022
Source: United States (US)
Launch site: AIR FORCE WESTERN TEST RANGE (AFWTR)
Your satellite tracking list
Your tracking list is empty




NASA's NSSDC Master Catalog

Two Line Element Set (TLE):
1 54183U 22141AC  25349.37032807  .00001007  00000-0  81320-4 0  9990
2 54183  53.2190  22.2644 0001519  88.1557 271.9610 15.08846073173136
Source of the keplerian elements: AFSPC